Weather History for Cambridge Bay, NU

Change the Weather History Date:

Monday, December 31, 2012

  Actual Average Record
Temperature  
Mean Temperature -28 °F -  
Max Temperature -23 °F -12 °F 8 °F (2001)
Min Temperature -33 °F -24 °F -45 °F (2008)
Degree Days  
Heating Degree Days 93    
Moisture  
Dew Point -39 °F    
Average Humidity 57    
Maximum Humidity 62    
Minimum Humidity 39    
Precipitation  
Precipitation 0.00 in - - ()
Sea Level Pressure  
Sea Level Pressure 30.03 in    
Wind  
Wind Speed 7 mph ()    
Max Wind Speed 12 mph    
Max Gust Speed -    
Visibility 15.0 miles    
Events Snow    
Averages and records for this station are not official NWS values.
T = Trace of Precipitation, MM = Missing Value Source: Averaged Metar Reports

Daily Weather History Graph

Daily Weather History Graph

Search for Another Location

Airport:

Trip Planner

Search our weather history database for the weather conditions in past years. The results will help you decide how hot, cold, wet, or windy it might be!

Date:

Astronomy

Dec. 31, 2012 Rise Set
Actual Time 11:31 AM MST 12:36 PM MST
Civil Twilight 9:34 AM MST 2:33 PM MST
Nautical Twilight 7:58 AM MST 4:09 PM MST
Astronomical Twilight 6:43 AM MST 5:24 PM MST
Moon 7:05 PM MST (12/31) 10:29 AM MST (12/31)
Length of Visible Light 4h 59m
Length of Day
1h 04m
Waning Gibbous, 90% of the Moon is Illuminated
Dec 31
Waning Gibbous
Jan 4
Last Quarter
Jan 11
New
Jan 18
First Quarter
Jan 26
Full

Hourly Weather History & Observations

Time (MST) Temp. Windchill Dew Point Humidity Pressure Visibility Wind Dir Wind Speed Gust Speed Precip Events Conditions
12:00 AM -23.8 °F -46.9 °F -34.6 °F 57% 29.99 in 15.0 mi NW 11.5 mph - N/A   Partly Cloudy
1:00 AM -25.6 °F -48.0 °F -36.4 °F 57% 29.99 in 15.0 mi NW 10.4 mph - N/A   Partly Cloudy
1:07 AM - - - N/A% - 15.0 mi NW 9.2 mph - N/A   Partly Cloudy
2:00 AM -27.4 °F -49.0 °F -36.4 °F 62% 30.01 in 15.0 mi NW 9.2 mph - N/A   Partly Cloudy
3:00 AM -27.4 °F -49.0 °F -38.2 °F 57% 30.01 in 15.0 mi NW 9.2 mph - N/A   Partly Cloudy
4:00 AM -27.4 °F -51.4 °F -36.4 °F 62% 30.01 in 15.0 mi NW 11.5 mph - N/A   Partly Cloudy
5:00 AM -28 °F - -38 °F 39% 30.01 in 15 mi NNW 9.2 mph - - Snow Snow
5:00 AM -27.4 °F -47.6 °F -38.2 °F 57% 30.01 in 15.0 mi NW 8.1 mph - N/A   Partly Cloudy
6:00 AM -29.2 °F -51.2 °F -40.0 °F 56% 30.01 in 15.0 mi NNW 9.2 mph - N/A   Partly Cloudy
7:00 AM -29.2 °F -51.2 °F -40.0 °F 56% 30.02 in 15.0 mi NNW 9.2 mph - N/A   Partly Cloudy
8:00 AM -29.2 °F -49.7 °F -38.2 °F 62% 30.03 in 15.0 mi North 8.1 mph - N/A   Partly Cloudy
9:00 AM -31.0 °F -51.9 °F -40.0 °F 62% 30.04 in 15.0 mi NNW 8.1 mph - N/A   Partly Cloudy
10:00 AM -31.0 °F -50.3 °F -40.0 °F 62% 30.03 in 15.0 mi NNW 6.9 mph - N/A   Partly Cloudy
11:00 AM -31 °F - -41 °F 39% 30.04 in 15 mi North 2.3 mph - - Snow Snow
11:00 AM -31.0 °F -43.3 °F -40.0 °F 62% 30.04 in 15.0 mi North 3.5 mph - N/A   Partly Cloudy
12:00 PM -31.0 °F - -41.8 °F 56% 30.04 in 15.0 mi Calm Calm - N/A   Partly Cloudy
1:00 PM -32.8 °F -48.2 °F -41.8 °F 62% 30.04 in 15.0 mi NW 4.6 mph - N/A   Partly Cloudy
2:00 PM -31.0 °F -48.4 °F -40.0 °F 62% 30.04 in 15.0 mi NNW 5.8 mph - N/A   Mostly Cloudy
3:00 PM -31.0 °F -43.3 °F -41.8 °F 56% 30.04 in 15.0 mi NNE 3.5 mph - N/A   Mostly Cloudy
4:00 PM -31.0 °F -46.1 °F -40.0 °F 62% 30.04 in 15.0 mi NNW 4.6 mph - N/A   Partly Cloudy
5:00 PM -33 °F - -42 °F 42% 30.04 in 15 mi North 4.6 mph - - Snow Snow
5:00 PM -32.8 °F -48.2 °F -41.8 °F 62% 30.04 in 15.0 mi North 4.6 mph - N/A   Partly Cloudy
6:00 PM -27.4 °F -47.6 °F -36.4 °F 62% 30.04 in 15.0 mi NNE 8.1 mph - N/A   Partly Cloudy
7:00 PM -31.0 °F -43.3 °F -41.8 °F 56% 30.03 in 15.0 mi NNE 3.5 mph - N/A   Partly Cloudy
8:00 PM -29.2 °F - -40.0 °F 56% 30.04 in 15.0 mi Calm Calm - N/A   Partly Cloudy
9:00 PM -29.2 °F -49.7 °F -40.0 °F 56% 30.03 in 15.0 mi NNE 8.1 mph - N/A   Mostly Cloudy
10:00 PM -31.0 °F -51.9 °F -40.0 °F 62% 30.03 in 15.0 mi NNE 8.1 mph - N/A   Mostly Cloudy
11:00 PM -31 °F - -40 °F 41% 30.03 in 15 mi NNE 6.9 mph - - Snow Snow
11:00 PM -31.0 °F -50.3 °F -40.0 °F 62% 30.03 in 15.0 mi NNE 6.9 mph - N/A   Scattered Clouds